Date String (YYYY-MM-DD hh:mm:ss) UTC,Instrument flags,Ambient pressure (hPa),Sample flow (lpm),Bypass flow (lpm),Sample temperature (°C),Ambient temperature (°C),ASC tube jacket temperature (°C),LED temperature (°C),Box temperature (°C),Sample RH (%),Span deviation,Mass concentration (μg/m³),Mass concentration (μg/m³),Mass concentration (μg/m³)
DateTimeUTC,F1_M11,P_M11,Q1_M11,Q2_M11,T1_M11,T2_M11,T3_M11,T4_M11,T5_M11,U1_M11,ZSPAN_M11,X0_M11,X2_M11,X1_M11
2022-02-11 03:00:00,,0818.7,5.00,0.00,25.0,23.8,00.0,34.1,26.8,11.0,0000.0,0002.18,0000.86,0000.46
2022-02-11 03:01:00,,0818.6,4.99,0.00,25.0,23.7,00.0,34.1,26.7,11.1,0000.0,0001.98,0000.81,0000.45
2022-02-11 03:02:00,,0818.7,5.01,0.00,25.0,23.7,00.0,34.1,26.7,11.0,0000.0,0001.96,0000.80,0000.44
2022-02-11 03:03:00,,0818.6,5.00,0.00,25.0,23.7,00.0,34.1,26.7,10.9,0000.0,0001.88,0000.80,0000.44
2022-02-11 03:04:00,,0818.6,4.99,0.00,25.0,23.7,00.0,34.0,26.7,10.9,0000.0,0001.73,0000.77,0000.43
2022-02-11 03:05:00,,0818.6,5.00,0.00,24.9,23.6,00.0,34.0,26.7,10.9,0000.0,0001.56,0000.78,0000.43
2022-02-11 03:06:00,,0818.5,4.99,0.00,24.9,23.6,00.0,34.0,26.7,10.9,0000.0,0001.53,0000.78,0000.43
2022-02-11 03:07:00,,0818.7,5.01,0.00,24.9,23.6,00.0,34.0,26.6,10.9,0000.0,0001.65,0000.81,0000.43
2022-02-11 03:08:00,,0818.6,5.01,0.00,24.9,23.6,00.0,34.0,26.6,11.1,0000.0,0001.75,0000.84,0000.43
2022-02-11 03:09:00,,0818.6,4.99,0.00,24.9,23.6,00.0,33.9,26.6,11.0,0000.0,0001.73,0000.85,0000.44
2022-02-11 03:10:00,,0818.4,5.01,0.00,24.9,23.6,00.0,33.9,26.6,11.1,0000.0,0001.61,0000.82,0000.45
2022-02-11 03:11:00,,0818.3,4.99,0.00,24.8,23.6,00.0,33.9,26.6,11.3,0000.0,0001.76,0000.80,0000.45
2022-02-11 03:12:00,,0818.2,4.99,0.00,24.8,23.5,00.0,33.9,26.6,11.1,0000.0,0001.94,0000.84,0000.46
2022-02-11 03:13:00,,0818.2,5.01,0.00,24.8,23.5,00.0,33.9,26.5,11.3,0000.0,0002.01,0000.86,0000.47
2022-02-11 03:14:00,,0818.2,5.00,0.00,24.8,23.5,00.0,33.8,26.5,11.2,0000.0,0002.32,0000.91,0000.47
2022-02-11 03:15:00,,0818.3,5.01,0.00,24.7,23.4,00.0,33.8,26.5,11.2,0000.0,0002.40,0000.91,0000.48
2022-02-11 03:16:00,,0818.2,4.99,0.00,24.7,23.4,00.0,33.8,26.4,11.4,0000.0,0002.43,0000.92,0000.49
2022-02-11 03:17:00,,0818.2,5.01,0.00,24.7,23.4,00.0,33.8,26.4,11.4,0000.0,0002.60,0000.95,0000.48
2022-02-11 03:18:00,,0818.3,4.98,0.00,24.7,23.4,00.0,33.8,26.4,11.4,0000.0,0002.58,0000.94,0000.48
2022-02-11 03:19:00,,0818.2,5.02,0.00,24.7,23.4,00.0,33.7,26.4,11.4,0000.0,0002.59,0000.96,0000.48
2022-02-11 03:20:00,,0818.2,5.00,0.00,24.6,23.3,00.0,33.7,26.4,11.3,0000.0,0002.60,0000.95,0000.48
2022-02-11 03:21:00,,0818.1,4.98,0.00,24.6,23.3,00.0,33.7,26.4,11.5,0000.0,0002.67,0000.96,0000.48
2022-02-11 03:22:00,,0818.1,5.01,0.00,24.6,23.3,00.0,33.7,26.4,11.3,0000.0,0003.06,0000.99,0000.49
2022-02-11 03:23:00,,0818.1,4.99,0.00,24.6,23.3,00.0,33.7,26.4,11.3,0000.0,0002.96,0000.99,0000.48
2022-02-11 03:24:00,,0817.9,5.00,0.00,24.6,23.3,00.0,33.6,26.3,11.4,0000.0,0002.99,0000.99,0000.48
2022-02-11 03:25:00,,0818.0,4.99,0.00,24.6,23.3,00.0,33.6,26.3,11.4,0000.0,0002.74,0000.94,0000.47
2022-02-11 03:26:00,,0818.1,5.01,0.00,24.5,23.2,00.0,33.6,26.3,11.4,0000.0,0002.68,0000.92,0000.46
2022-02-11 03:27:00,,0818.0,4.99,0.00,24.5,23.2,00.0,33.6,26.3,11.4,0000.0,0002.68,0000.90,0000.46
2022-02-11 03:28:00,,0818.0,5.01,0.00,24.5,23.2,00.0,33.6,26.2,11.3,0000.0,0002.59,0000.90,0000.46
2022-02-11 03:29:00,,0818.0,4.98,0.00,24.5,23.2,00.0,33.5,26.2,11.2,0000.0,0002.62,0000.89,0000.47
2022-02-11 03:30:00,,0817.9,5.01,0.00,24.5,23.2,00.0,33.5,26.2,11.1,0000.0,0002.67,0000.90,0000.48
2022-02-11 03:31:00,,0817.9,4.99,0.00,24.4,23.1,00.0,33.5,26.2,11.2,0000.0,0003.25,0000.92,0000.47
2022-02-11 03:32:00,,0817.9,4.99,0.00,24.4,23.1,00.0,33.5,26.2,11.2,0000.0,0003.30,0000.92,0000.46
2022-02-11 03:33:00,,0817.9,5.02,0.00,24.4,23.1,00.0,33.5,26.1,11.2,0000.0,0002.67,0000.86,0000.45
2022-02-11 03:34:00,,0817.8,5.00,0.00,24.4,23.1,00.0,33.4,26.1,11.2,0000.0,0002.71,0000.84,0000.45
2022-02-11 03:35:00,,0817.9,4.98,0.00,24.4,23.0,00.0,33.4,26.1,11.1,0000.0,0002.70,0000.83,0000.44
2022-02-11 03:36:00,,0817.9,5.01,0.00,24.3,23.0,00.0,33.4,26.0,11.0,0000.0,0002.53,0000.82,0000.45
2022-02-11 03:37:00,,0818.0,5.01,0.00,24.3,23.0,00.0,33.4,26.0,11.0,0000.0,0002.98,0000.86,0000.45
2022-02-11 03:38:00,,0818.0,4.99,0.00,24.3,22.9,00.0,33.3,26.0,10.9,0000.0,0003.14,0000.85,0000.44
2022-02-11 03:39:00,,0818.0,5.01,0.00,24.3,22.9,00.0,33.3,26.0,11.0,0000.0,0003.12,0000.85,0000.44
2022-02-11 03:40:00,,0818.0,5.00,0.00,24.2,22.9,00.0,33.3,25.9,11.2,0000.0,0003.27,0000.86,0000.44
2022-02-11 03:41:00,,0818.0,4.99,0.00,24.2,22.9,00.0,33.3,25.9,11.2,0000.0,0004.07,0000.88,0000.44
2022-02-11 03:42:00,,0818.1,5.00,0.00,24.2,22.9,00.0,33.3,25.9,11.3,0000.0,0004.02,0000.83,0000.45
2022-02-11 03:43:00,,0818.1,5.01,0.00,24.2,22.9,00.0,33.2,25.9,11.4,0000.0,0003.67,0000.80,0000.45
2022-02-11 03:44:00,,0818.1,4.99,0.00,24.2,22.9,00.0,33.2,25.9,11.3,0000.0,0003.62,0000.78,0000.45
2022-02-11 03:45:00,,0818.1,5.01,0.00,24.1,22.9,00.0,33.2,25.9,11.4,0000.0,0003.69,0000.76,0000.45
2022-02-11 03:46:00,,0818.2,5.01,0.00,24.1,22.9,00.0,33.2,25.9,11.3,0000.0,0003.63,0000.77,0000.46
2022-02-11 03:47:00,,0818.0,4.99,0.00,24.1,22.9,00.0,33.2,25.8,11.4,0000.0,0003.60,0000.79,0000.46
2022-02-11 03:48:00,,0818.1,5.02,0.00,24.1,22.8,00.0,33.2,25.7,11.2,0000.0,0003.51,0000.77,0000.46
2022-02-11 03:49:00,,0818.2,5.00,0.00,24.1,22.8,00.0,33.1,25.8,11.3,0000.0,0003.28,0000.75,0000.46
2022-02-11 03:50:00,,0818.1,5.00,0.00,24.0,22.8,00.0,33.1,25.7,11.4,0000.0,0003.29,0000.76,0000.46
2022-02-11 03:51:00,,0818.2,5.02,0.00,24.0,22.8,00.0,33.1,25.7,11.3,0000.0,0003.38,0000.79,0000.47
2022-02-11 03:52:00,,0818.2,4.99,0.00,24.0,22.7,00.0,33.1,25.7,11.3,0000.0,0002.55,0000.74,0000.46
2022-02-11 03:53:00,,0818.2,5.01,0.00,24.0,22.7,00.0,33.1,25.7,11.3,0000.0,0001.93,0000.75,0000.46
2022-02-11 03:54:00,,0818.3,5.00,0.00,24.0,22.7,00.0,33.0,25.7,11.4,0000.0,0001.97,0000.76,0000.47
2022-02-11 03:55:00,,0818.4,4.98,0.00,24.0,22.7,00.0,33.0,25.7,11.5,0000.0,0001.94,0000.77,0000.47
2022-02-11 03:56:00,,0818.5,5.01,0.00,23.9,22.7,00.0,33.0,25.7,11.4,0000.0,0001.82,0000.79,0000.47
2022-02-11 03:57:00,,0818.5,5.00,0.00,23.9,22.7,00.0,33.0,25.6,11.4,0000.0,0001.92,0000.80,0000.47
2022-02-11 03:58:00,,0818.5,5.01,0.00,23.9,22.7,00.0,33.0,25.6,11.3,0000.0,0001.92,0000.79,0000.48
2022-02-11 03:59:00,,0818.5,5.01,0.00,23.9,22.7,00.0,33.0,25.6,11.2,0000.0,0001.84,0000.77,0000.48
